SCP
0 0 0 0 0 0 1 1 0 0 0 0 0 0 0 0 0 0 0 0 0 0 0 0 0 0 0 0 0 0 0 0 0 0 0 0 0 0 0 0 0 0 0
0 0 0 0 0 0 0 0 0 0 0 0 0 0 0 0 0 0 0 0 0 0 0 0 0 0 0 0 0 0 0 0 0 0 0 0 0 0 0 0 0 0 0
0 0 0 0 0 0 0 0 0 0 0 0 0 0 0 0 0 0 0 0 0 0 0 0 0 0 0 0 0 0 0 0 0 0 0 0 0 0 0 0 0 0 0
0 0 0 0 0 0 0 0 0 0 0 0 0 0 0 0 0 0 0 0 0 0 0 0 0 0 0 0 -0 0 0 0 0 0 0 0 0 0 0 0 0 0 0
0 0 0 0 0 0 0 0 0 0 0 0 0 0 0 0 0 0 0 0 0 0 0 0 0 0 0 0 0 0 0 0 0 0 0 0 0 0 0 0 0 0 0
0 0 0 -0 0 0 0 0 0 0 0 0 0 0 0 0 0 0 0 0 0 0 0 0 0 0 0 0 0 0 0 0 0 0 0 0 0 0 0 0 0 0 0
0 0 0 0 0 0 0 0 -0 0 0 0 0 0 0 0 0 0 0 0 0 0 0 0 0 0 0 0 0 0 0 0 0 0 0 0 0 0 0 0 0 0 0
0 0 -0 0 0 0 0 0 0 0 0 0 0 0 0 0 0 0 0 0 0 0 0 0 0 0 0 0 0 0 0 0 0 0 0 0 0 0 0 0 0 0 0
0 0 -0 0 0 0 0 -0 0 0 0 0 0 0 0 0 0 0 0 0 0 0 0 0 0 0 0 0 0 0 0 0 0 0 0 0 0 0 0 0 0 0 0
0 0 0 0 0 0 0 0 0 0 0 0 0 0 0 0 0 0 0 0 0 0 0 0 0 0 0 0 0 0 0 0 0 0 0 0 0 0 0 0 0 0 0
0 0 0 0 0 0 0 -0 0 0 0 0 0 0 0 0 0 0 0 0 0 0 0 0 0 0 0 0 0 0 0 0 0 0 0 0 0 0 0 0 0 0 0
0 0 0 0 0 -0 -0 -0 0 0 0 0 0 0 0 0 0 0 0 0 0 0 0 0 0 0 0 0 0 0 0 0 0 0 0 0 0 0 0 0 0 0 0
-0 -0 -0 0 0 -0 0 0 0 0 0 0 0 0 0 0 0 0 0 0 0 0 0 0 0 0 0 0 0 0 0 0 0 0 0 0 0 0 0 0 0 0 0
0 -0 0 -0 -0 0 -0 0 -0 0 0 0 0 0 0 0 0 0 0 0 0 0 0 0 0 0 0 0 0 0 0 0 0 0 0 0 0 0 0 0 0 0 0
-0 0 0 0 0 0 0 0 0 0 0 0 0 0 0 0 0 0 0 0 0 0 0 0 0 0 0 0 0 0 0 0 0 0 0 0 0 0 0 0 0 0 0
-0 0 -0 0 0 0 0 0 0 0 0 0 0 0 0 0 0 0 0 0 0 0 0 0 0 0 0 0 0 0 0 0 0 0 0 0 0 0 0 0 0 0 0
-0 -0 -0 -0 -0 -0 0 0 0 0 0 0 0 0 0 0 0 0 0 0 0 0 0 0 0 0 0 0 0 0 0 0 0 0 0 0 0 0 0 0 0 0 0
-0 -0 -0 0 -0 -0 0 0 -0 0 0 0 0 0 0 0 0 0 0 0 0 0 0 -0 -0 0 0 0 0 0 0 0 0 0 0 0 0 0 0 0 0 0 0
0 0 0 0 -0 0 0 0 -0 0 0 0 0 0 0 0 0 0 0 0 0 0 0 0 0 0 0 0 0 0 0 0 0 0 0 0 0 0 0 0 0 0 0
-0 -0 -0 -0 -0 -0 0 0 0 0 0 0 0 0 0 0 0 0 0 0 0 0 0 0 0 0 0 0 0 0 0 0 0 0 0 0 0 0 0 0 0 0 0
0 -0 -0 -0 -0 0 0 0 0 0 0 0 -0 -0 -0 -0 0 0 0 0 0 0 0 0 0 0 0 0 0 0 0 0 0 0 0 0 0 0 0 0 0 0 0
-0 -0 0 0 0 0 0 0 0 0 -0 -0 0 -0 -0 0 0 0 0 0 0 0 0 0 0 0 0 0 0 0 0 0 0 0 0 0 0 0 0 0 0 0 0
-0 0 0 0 0 0 0 0 0 0 0 0 0 0 0 0 0 0 0 0 0 0 0 0 0 0 0 0 0 0 0 0 0 0 0 0 0 0 0 0 0 0 0
-0 -0 -0 -0 0 0 0 0 0 0 -0 -0 0 0 0 0 0 0 0 0 0 0 0 0 0 0 0 0 0 0 0 0 0 0 0 0 0 0 0 0 0 0 0
0 0 -0 -0 -0 -0 -0 0 0 0 0 0 0 0 0 0 0 0 0 0 0 0 0 0 0 0 0 0 0 0 0 0 0 0 0 0 0 0 0 0 0 0 0
0 0 0 0 0 0 0 0 0 0 0 0 0 0 0 0 0 0 0 0 0 0 0 0 0 0 0 0 0 0 0 0 0 0 0 0 0 0 0 0 0 0 0
Wind_Speed_500mb
38 31 38 38 41 44 38 58 64 57 45 47 48 43 47 49 41 35 32 29 23 19 24 23 22 20 17 19 15 12 5 5 3 3 10 16 16 16 20 21 19 18 16
34 35 29 32 39 32 40 63 64 49 54 44 49 44 49 50 44 39 36 30 19 19 23 24 23 20 26 21 13 16 20 22 18 16 19 15 13 9 10 7 9 5 5
32 31 27 31 37 39 43 70 66 53 52 47 52 52 52 52 45 39 35 29 25 27 27 25 26 31 28 17 27 25 22 17 10 11 10 8 5 3 5 5 9 14 16
26 27 24 27 40 42 63 76 69 66 62 59 52 53 56 49 46 45 38 33 33 29 24 26 32 32 29 26 20 19 17 12 8 3 4 6 7 9 11 11 13 18 22
20 23 22 28 42 40 65 75 70 68 70 67 61 52 54 58 52 43 39 35 33 28 28 23 28 34 27 26 24 11 16 14 13 9 10 12 14 17 17 19 21 22 23
13 12 23 33 36 50 71 80 77 77 78 75 72 67 61 56 52 46 41 38 34 31 29 25 22 31 37 23 15 10 13 14 10 10 14 17 17 16 18 20 21 22 22
9 14 24 40 29 61 70 73 75 89 74 68 76 66 62 57 60 52 48 41 37 32 31 24 20 24 26 17 9 7 10 13 11 14 14 14 13 15 18 20 21 21 23
9 22 23 36 45 68 67 65 76 87 88 87 91 79 55 54 55 49 49 43 35 33 30 24 22 21 18 13 11 10 10 9 12 12 13 12 13 16 17 17 19 21 23
14 21 28 31 59 63 68 77 93 95 98 87 89 65 53 32 61 44 42 40 37 33 27 24 23 24 19 15 11 8 7 9 10 10 9 8 9 13 14 15 16 17 18
20 26 36 30 57 67 74 69 72 92 96 84 58 61 42 81 45 31 39 43 37 28 24 25 26 24 19 14 11 8 7 8 9 8 8 8 9 10 14 17 19 21 24
49 36 31 49 52 48 58 51 74 83 89 87 81 72 49 61 56 66 53 43 38 33 32 30 28 21 16 12 8 5 5 8 7 5 6 8 11 15 18 22 24 25 26
40 34 41 43 53 52 46 46 71 86 71 78 72 68 69 59 56 74 55 46 41 37 34 30 25 18 14 10 5 5 6 6 6 6 6 9 13 16 20 23 25 26 27
32 27 27 32 50 45 38 29 66 62 72 71 71 68 59 67 55 54 56 56 45 39 28 29 25 19 17 12 9 9 8 6 6 5 7 11 15 18 21 25 27 29 30
34 32 27 36 51 35 25 33 55 57 65 69 65 62 57 52 51 50 47 43 36 28 32 30 27 26 20 16 12 8 8 8 7 6 9 12 17 21 26 28 29 31 32
35 34 44 49 42 25 31 41 57 61 54 56 66 58 56 52 52 47 52 41 32 29 30 35 28 30 23 17 12 11 11 9 8 10 12 15 20 23 27 30 32 34 35
28 32 40 41 32 24 27 40 50 53 64 59 56 54 58 49 40 40 44 41 38 26 34 40 41 33 26 18 16 15 13 12 12 12 15 18 23 26 30 33 35 36 36
25 26 26 25 28 24 24 30 45 54 70 60 55 57 57 47 38 39 39 42 38 25 23 32 35 33 30 23 21 17 13 13 13 15 19 22 26 29 34 35 36 37 36
32 29 29 30 29 31 34 32 47 47 47 64 58 60 57 55 48 41 35 47 38 27 22 23 36 39 32 26 20 17 14 15 16 17 21 26 28 32 34 36 37 39 41
31 29 28 31 36 35 40 33 37 47 55 53 53 62 60 52 52 46 44 47 39 34 27 22 28 36 32 25 21 19 16 16 17 21 24 28 28 33 37 38 39 40 41
30 30 34 32 33 30 31 34 34 51 51 52 53 51 49 51 47 47 52 46 44 34 28 25 25 29 26 25 25 20 17 18 21 22 25 27 29 34 38 37 40 41 41
36 37 37 41 40 36 39 44 46 48 50 51 49 49 49 44 41 43 44 45 40 32 29 28 27 28 26 24 20 17 19 20 21 24 24 26 31 34 35 34 37 40 41
34 39 43 37 40 42 40 45 52 58 56 55 55 52 48 45 42 39 39 36 28 24 26 28 27 24 21 20 17 17 17 20 22 19 20 25 28 28 30 36 38 40 37
40 45 43 43 49 51 49 47 46 46 48 48 48 50 49 48 47 46 43 36 33 30 24 19 17 18 17 14 15 16 18 20 22 21 25 26 24 26 34 38 38 35 27
44 45 44 46 47 47 44 43 43 42 44 47 47 47 48 49 47 42 39 39 37 34 31 27 24 21 19 18 18 18 20 21 22 22 22 26 25 30 35 39 30 24 34
47 46 45 44 46 49 49 48 46 47 50 50 50 49 48 46 43 43 42 39 38 36 32 30 28 27 25 24 24 24 24 23 24 25 24 27 25 31 37 36 25 29 38
47 46 45 46 49 49 48 49 50 52 53 54 55 52 49 47 48 48 45 42 38 35 35 35 36 35 34 33 32 31 28 28 28 28 24 25 29 29 24 30 31 37 40
Wind_Direction_500mb
293 281 257 245 224 214 210 206 195 186 172 179 180 193 188 182 176 173 175 180 183 179 174 170 166 166 166 161 160 161 159 132 93 71 71 80 79 79 79 75 75 71 66
288 285 265 233 217 203 200 203 184 170 166 163 180 185 188 178 173 171 173 171 174 159 163 163 161 164 155 151 149 123 105 102 102 109 115 122 125 129 127 120 106 109 41
294 278 272 222 203 190 197 195 177 165 159 167 178 179 177 173 170 170 167 166 153 141 140 140 144 144 144 122 120 121 113 102 107 123 121 128 135 209 232 233 270 279 285
292 280 259 213 187 196 171 179 174 164 160 172 173 168 168 166 166 160 157 160 145 135 121 135 136 135 129 126 143 132 92 73 60 40 58 51 12 352 335 325 316 318 322
283 283 222 194 187 189 163 163 158 163 163 161 162 158 163 166 169 167 163 153 147 139 132 136 137 126 119 126 122 123 42 31 11 11 9 359 346 345 347 351 358 357 1
251 256 201 193 169 159 184 171 166 159 158 161 159 158 161 164 167 172 167 162 155 148 146 148 154 145 137 134 131 350 28 4 4 1 356 351 355 357 1 5 4 359 358
208 196 191 179 148 152 167 165 173 150 158 165 156 153 151 160 167 166 165 161 158 154 154 165 174 179 189 204 241 309 350 342 350 353 356 357 355 3 3 2 2 1 1
159 172 182 168 146 140 165 161 162 166 166 171 164 156 136 140 145 153 154 158 163 168 168 177 176 189 204 220 263 282 311 333 338 344 348 355 1 360 357 359 4 3 6
125 169 168 154 135 152 168 164 174 171 166 171 162 165 150 146 138 138 155 161 166 168 176 179 180 176 194 211 224 252 291 315 332 346 348 349 351 353 359 2 359 12 11
121 135 150 167 138 152 169 178 182 172 172 170 168 169 174 166 164 140 155 153 156 173 173 169 178 178 187 199 212 238 285 317 327 340 351 349 341 343 349 351 349 345 345
114 130 152 174 162 168 185 183 177 174 177 175 183 176 175 167 168 157 149 149 155 164 168 172 182 181 185 195 214 252 301 316 328 308 306 328 347 348 347 347 345 339 331
129 153 144 147 161 173 183 192 186 183 189 180 190 183 181 171 175 166 155 152 163 162 171 178 184 186 196 200 215 239 245 262 273 299 320 340 343 345 343 339 335 328 325
123 123 148 151 151 158 166 182 189 184 184 192 193 189 194 192 189 188 180 167 164 168 174 187 192 196 202 204 212 232 252 264 274 303 321 333 338 334 334 333 331 327 327
151 150 169 156 159 173 177 179 169 183 191 193 190 190 184 190 192 193 196 192 167 173 182 197 201 203 206 214 224 232 243 245 256 280 306 313 328 333 335 330 326 326 327
141 152 152 162 176 190 182 184 185 191 197 200 201 201 202 198 205 218 207 205 209 177 194 201 201 211 211 216 223 237 239 238 251 282 299 317 328 332 326 326 326 330 333
154 165 176 187 195 196 192 188 197 203 197 197 199 202 196 203 209 212 215 216 215 222 197 208 211 214 213 220 225 226 226 236 258 285 300 317 324 325 324 324 328 329 328
162 171 175 179 190 195 187 200 204 206 207 202 199 195 200 204 208 199 212 214 204 206 209 213 218 209 209 218 223 221 223 251 271 290 303 312 316 320 323 323 324 322 323
183 187 184 186 201 214 198 205 211 202 209 206 203 200 207 210 196 190 195 198 199 212 233 226 211 210 212 218 221 223 231 253 279 293 303 312 316 316 318 318 319 323 323
184 187 179 191 200 195 196 197 203 200 190 195 199 202 208 217 184 201 193 192 202 216 229 237 215 201 206 210 216 225 242 261 282 298 304 309 309 314 314 315 318 319 317
196 184 183 187 176 179 182 184 187 184 195 199 200 202 191 190 199 193 183 194 208 217 220 212 198 196 201 207 215 227 247 266 280 292 300 303 305 309 312 309 315 313 310
162 159 163 162 158 159 155 158 165 169 171 169 170 175 176 173 178 184 190 198 206 204 196 188 191 196 202 210 221 235 252 269 283 291 293 297 307 308 302 303 310 311 311
167 165 164 169 170 170 170 167 164 160 159 162 166 171 173 175 179 183 189 193 186 187 190 191 192 199 205 213 227 243 260 272 281 288 289 295 303 305 305 310 312 309 307
162 165 162 158 158 160 159 161 165 169 173 175 178 178 177 176 178 180 178 177 180 177 190 192 198 202 210 221 235 247 257 263 274 287 291 300 310 316 314 311 309 303 300
164 166 167 167 168 171 172 175 180 184 183 182 182 182 181 180 180 179 179 183 184 185 188 193 198 207 218 224 233 241 248 259 271 281 286 294 309 319 316 312 308 300 311
180 179 181 184 185 186 185 186 188 190 188 187 186 186 187 187 182 186 191 191 191 194 197 202 208 215 221 229 237 244 251 256 269 280 283 283 298 312 320 316 311 310 311
195 194 197 198 195 197 197 194 195 196 196 195 193 192 192 194 196 196 197 202 205 207 211 216 219 222 226 232 238 245 249 255 262 276 278 276 295 306 317 315 308 312 311
Wind_Speed_850mb
38 31 38 38 41 44 38 58 64 57 45 47 48 43 47 49 41 35 32 29 23 19 24 23 22 20 17 19 15 12 5 5 3 3 10 16 16 16 20 21 19 18 16
34 35 29 32 39 32 40 63 64 49 54 44 49 44 49 50 44 39 36 30 19 19 23 24 23 20 26 21 13 16 20 22 18 16 19 15 13 9 10 7 9 5 5
32 31 27 31 37 39 43 70 66 53 52 47 52 52 52 52 45 39 35 29 25 27 27 25 26 31 28 17 27 25 22 17 10 11 10 8 5 3 5 5 9 14 16
26 27 24 27 40 42 63 76 69 66 62 59 52 53 56 49 46 45 38 33 33 29 24 26 32 32 29 26 20 19 17 12 8 3 4 6 7 9 11 11 13 18 22
20 23 22 28 42 40 65 75 70 68 70 67 61 52 54 58 52 43 39 35 33 28 28 23 28 34 27 26 24 11 16 14 13 9 10 12 14 17 17 19 21 22 23
13 12 23 33 36 50 71 80 77 77 78 75 72 67 61 56 52 46 41 38 34 31 29 25 22 31 37 23 15 10 13 14 10 10 14 17 17 16 18 20 21 22 22
9 14 24 40 29 61 70 73 75 89 74 68 76 66 62 57 60 52 48 41 37 32 31 24 20 24 26 17 9 7 10 13 11 14 14 14 13 15 18 20 21 21 23
9 22 23 36 45 68 67 65 76 87 88 87 91 79 55 54 55 49 49 43 35 33 30 24 22 21 18 13 11 10 10 9 12 12 13 12 13 16 17 17 19 21 23
14 21 28 31 59 63 68 77 93 95 98 87 89 65 53 32 61 44 42 40 37 33 27 24 23 24 19 15 11 8 7 9 10 10 9 8 9 13 14 15 16 17 18
20 26 36 30 57 67 74 69 72 92 96 84 58 61 42 81 45 31 39 43 37 28 24 25 26 24 19 14 11 8 7 8 9 8 8 8 9 10 14 17 19 21 24
49 36 31 49 52 48 58 51 74 83 89 87 81 72 49 61 56 66 53 43 38 33 32 30 28 21 16 12 8 5 5 8 7 5 6 8 11 15 18 22 24 25 26
40 34 41 43 53 52 46 46 71 86 71 78 72 68 69 59 56 74 55 46 41 37 34 30 25 18 14 10 5 5 6 6 6 6 6 9 13 16 20 23 25 26 27
32 27 27 32 50 45 38 29 66 62 72 71 71 68 59 67 55 54 56 56 45 39 28 29 25 19 17 12 9 9 8 6 6 5 7 11 15 18 21 25 27 29 30
34 32 27 36 51 35 25 33 55 57 65 69 65 62 57 52 51 50 47 43 36 28 32 30 27 26 20 16 12 8 8 8 7 6 9 12 17 21 26 28 29 31 32
35 34 44 49 42 25 31 41 57 61 54 56 66 58 56 52 52 47 52 41 32 29 30 35 28 30 23 17 12 11 11 9 8 10 12 15 20 23 27 30 32 34 35
28 32 40 41 32 24 27 40 50 53 64 59 56 54 58 49 40 40 44 41 38 26 34 40 41 33 26 18 16 15 13 12 12 12 15 18 23 26 30 33 35 36 36
25 26 26 25 28 24 24 30 45 54 70 60 55 57 57 47 38 39 39 42 38 25 23 32 35 33 30 23 21 17 13 13 13 15 19 22 26 29 34 35 36 37 36
32 29 29 30 29 31 34 32 47 47 47 64 58 60 57 55 48 41 35 47 38 27 22 23 36 39 32 26 20 17 14 15 16 17 21 26 28 32 34 36 37 39 41
31 29 28 31 36 35 40 33 37 47 55 53 53 62 60 52 52 46 44 47 39 34 27 22 28 36 32 25 21 19 16 16 17 21 24 28 28 33 37 38 39 40 41
30 30 34 32 33 30 31 34 34 51 51 52 53 51 49 51 47 47 52 46 44 34 28 25 25 29 26 25 25 20 17 18 21 22 25 27 29 34 38 37 40 41 41
36 37 37 41 40 36 39 44 46 48 50 51 49 49 49 44 41 43 44 45 40 32 29 28 27 28 26 24 20 17 19 20 21 24 24 26 31 34 35 34 37 40 41
34 39 43 37 40 42 40 45 52 58 56 55 55 52 48 45 42 39 39 36 28 24 26 28 27 24 21 20 17 17 17 20 22 19 20 25 28 28 30 36 38 40 37
40 45 43 43 49 51 49 47 46 46 48 48 48 50 49 48 47 46 43 36 33 30 24 19 17 18 17 14 15 16 18 20 22 21 25 26 24 26 34 38 38 35 27
44 45 44 46 47 47 44 43 43 42 44 47 47 47 48 49 47 42 39 39 37 34 31 27 24 21 19 18 18 18 20 21 22 22 22 26 25 30 35 39 30 24 34
47 46 45 44 46 49 49 48 46 47 50 50 50 49 48 46 43 43 42 39 38 36 32 30 28 27 25 24 24 24 24 23 24 25 24 27 25 31 37 36 25 29 38
47 46 45 46 49 49 48 49 50 52 53 54 55 52 49 47 48 48 45 42 38 35 35 35 36 35 34 33 32 31 28 28 28 28 24 25 29 29 24 30 31 37 40
Wind_Direction_850mb
293 281 257 245 224 214 210 206 195 186 172 179 180 193 188 182 176 173 175 180 183 179 174 170 166 166 166 161 160 161 159 132 93 71 71 80 79 79 79 75 75 71 66
288 285 265 233 217 203 200 203 184 170 166 163 180 185 188 178 173 171 173 171 174 159 163 163 161 164 155 151 149 123 105 102 102 109 115 122 125 129 127 120 106 109 41
294 278 272 222 203 190 197 195 177 165 159 167 178 179 177 173 170 170 167 166 153 141 140 140 144 144 144 122 120 121 113 102 107 123 121 128 135 209 232 233 270 279 285
292 280 259 213 187 196 171 179 174 164 160 172 173 168 168 166 166 160 157 160 145 135 121 135 136 135 129 126 143 132 92 73 60 40 58 51 12 352 335 325 316 318 322
283 283 222 194 187 189 163 163 158 163 163 161 162 158 163 166 169 167 163 153 147 139 132 136 137 126 119 126 122 123 42 31 11 11 9 359 346 345 347 351 358 357 1
251 256 201 193 169 159 184 171 166 159 158 161 159 158 161 164 167 172 167 162 155 148 146 148 154 145 137 134 131 350 28 4 4 1 356 351 355 357 1 5 4 359 358
208 196 191 179 148 152 167 165 173 150 158 165 156 153 151 160 167 166 165 161 158 154 154 165 174 179 189 204 241 309 350 342 350 353 356 357 355 3 3 2 2 1 1
159 172 182 168 146 140 165 161 162 166 166 171 164 156 136 140 145 153 154 158 163 168 168 177 176 189 204 220 263 282 311 333 338 344 348 355 1 360 357 359 4 3 6
125 169 168 154 135 152 168 164 174 171 166 171 162 165 150 146 138 138 155 161 166 168 176 179 180 176 194 211 224 252 291 315 332 346 348 349 351 353 359 2 359 12 11
121 135 150 167 138 152 169 178 182 172 172 170 168 169 174 166 164 140 155 153 156 173 173 169 178 178 187 199 212 238 285 317 327 340 351 349 341 343 349 351 349 345 345
114 130 152 174 162 168 185 183 177 174 177 175 183 176 175 167 168 157 149 149 155 164 168 172 182 181 185 195 214 252 301 316 328 308 306 328 347 348 347 347 345 339 331
129 153 144 147 161 173 183 192 186 183 189 180 190 183 181 171 175 166 155 152 163 162 171 178 184 186 196 200 215 239 245 262 273 299 320 340 343 345 343 339 335 328 325
123 123 148 151 151 158 166 182 189 184 184 192 193 189 194 192 189 188 180 167 164 168 174 187 192 196 202 204 212 232 252 264 274 303 321 333 338 334 334 333 331 327 327
151 150 169 156 159 173 177 179 169 183 191 193 190 190 184 190 192 193 196 192 167 173 182 197 201 203 206 214 224 232 243 245 256 280 306 313 328 333 335 330 326 326 327
141 152 152 162 176 190 182 184 185 191 197 200 201 201 202 198 205 218 207 205 209 177 194 201 201 211 211 216 223 237 239 238 251 282 299 317 328 332 326 326 326 330 333
154 165 176 187 195 196 192 188 197 203 197 197 199 202 196 203 209 212 215 216 215 222 197 208 211 214 213 220 225 226 226 236 258 285 300 317 324 325 324 324 328 329 328
162 171 175 179 190 195 187 200 204 206 207 202 199 195 200 204 208 199 212 214 204 206 209 213 218 209 209 218 223 221 223 251 271 290 303 312 316 320 323 323 324 322 323
183 187 184 186 201 214 198 205 211 202 209 206 203 200 207 210 196 190 195 198 199 212 233 226 211 210 212 218 221 223 231 253 279 293 303 312 316 316 318 318 319 323 323
184 187 179 191 200 195 196 197 203 200 190 195 199 202 208 217 184 201 193 192 202 216 229 237 215 201 206 210 216 225 242 261 282 298 304 309 309 314 314 315 318 319 317
196 184 183 187 176 179 182 184 187 184 195 199 200 202 191 190 199 193 183 194 208 217 220 212 198 196 201 207 215 227 247 266 280 292 300 303 305 309 312 309 315 313 310
162 159 163 162 158 159 155 158 165 169 171 169 170 175 176 173 178 184 190 198 206 204 196 188 191 196 202 210 221 235 252 269 283 291 293 297 307 308 302 303 310 311 311
167 165 164 169 170 170 170 167 164 160 159 162 166 171 173 175 179 183 189 193 186 187 190 191 192 199 205 213 227 243 260 272 281 288 289 295 303 305 305 310 312 309 307
162 165 162 158 158 160 159 161 165 169 173 175 178 178 177 176 178 180 178 177 180 177 190 192 198 202 210 221 235 247 257 263 274 287 291 300 310 316 314 311 309 303 300
164 166 167 167 168 171 172 175 180 184 183 182 182 182 181 180 180 179 179 183 184 185 188 193 198 207 218 224 233 241 248 259 271 281 286 294 309 319 316 312 308 300 311
180 179 181 184 185 186 185 186 188 190 188 187 186 186 187 187 182 186 191 191 191 194 197 202 208 215 221 229 237 244 251 256 269 280 283 283 298 312 320 316 311 310 311
195 194 197 198 195 197 197 194 195 196 196 195 193 192 192 194 196 196 197 202 205 207 211 216 219 222 226 232 238 245 249 255 262 276 278 276 295 306 317 315 308 312 311